| time (UTC) | temp C | wind direction | speed KPH | gust KPH | rain 1hr cm | rain 24hr cm | rain mn cm | humidity % | barometer mb |
| 20260502183013 | 7 | 277 | 3.2 | 12.9 | 0.00 | 0.00 | 0.00 | 46 | 1017.3 |
| 20260502181513 | 7 | 267 | 1.6 | 14.5 | 0.00 | 0.00 | 0.00 | 46 | 1017.3 |
| 20260502163103 | 6 | 315 | 8.0 | 16.1 | 0.00 | 0.00 | 0.00 | 57 | 1017.9 |
| 20260502161600 | 6 | 278 | 3.2 | 14.5 | 0.00 | 0.00 | 0.00 | 56 | 1018.0 |
| 20260502151603 | 6 | 321 | 6.4 | 17.7 | 0.00 | 0.00 | 0.00 | 57 | 1018.1 |
| 20260502123025 | 2 | 281 | 3.2 | 12.9 | 0.00 | 0.00 | 0.00 | 83 | 1018.5 |
| 20260502121527 | 2 | 288 | 3.2 | 12.9 | 0.00 | 0.00 | 0.00 | 84 | 1018.6 |
| 20260502114520 | 1 | 284 | 1.6 | 12.9 | 0.00 | 0.00 | 0.00 | 84 | 1018.5 |
| 20260502113019 | 1 | 276 | 1.6 | 12.9 | 0.00 | 0.00 | 0.00 | 84 | 1018.3 |
| 20260502111522 | 1 | 277 | 4.8 | 11.3 | 0.00 | 0.00 | 0.00 | 85 | 1018.3 |
| 20260502110015 | 0 | 279 | 1.6 | 8.0 | 0.00 | 0.00 | 0.00 | 84 | 1018.2 |
| 20260502104513 | 1 | 280 | 3.2 | 8.0 | 0.00 | 0.00 | 0.00 | 84 | 1018.1 |
| 20260502103011 | 1 | 261 | 1.6 | 4.8 | 0.00 | 0.00 | 0.00 | 84 | 1017.9 |
| 20260502101510 | 1 | 261 | 0.0 | 3.2 | 0.00 | 0.00 | 0.00 | 83 | 1017.9 |
| 20260502091502 | 1 | 178 | 0.0 | 3.2 | 0.00 | 0.00 | 0.00 | 84 | 1017.4 |
| 20260502080103 | 2 | 124 | 0.0 | 1.6 | 0.00 | 0.00 | 0.00 | 88 | 1017.3 |
| 20260502070045 | 2 | 119 | 0.0 | 1.6 | 0.00 | 0.00 | 0.00 | 86 | 1017.4 |
| 20260502064545 | 2 | 119 | 0.0 | 0.0 | 0.00 | 0.00 | 0.00 | 85 | 1017.5 |
| 20260502063043 | 2 | 119 | 0.0 | 0.0 | 0.00 | 0.00 | 0.00 | 85 | 1017.5 |
| 20260502061542 | 2 | 119 | 0.0 | 3.2 | 0.00 | 0.00 | 0.00 | 85 | 1017.6 |
| 20260502060040 | 2 | 119 | 1.6 | 4.8 | 0.00 | 0.00 | 0.00 | 84 | 1017.7 |
| 20260502054541 | 2 | 119 | 1.6 | 4.8 | 0.00 | 0.00 | 0.00 | 84 | 1017.7 |
| 20260502053138 | 2 | 119 | 1.6 | 4.8 | 0.00 | 0.00 | 0.00 | 84 | 1017.7 |
| 20260502051546 | 2 | 119 | 1.6 | 4.8 | 0.00 | 0.00 | 0.00 | 85 | 1017.7 |
| 20260502050035 | 2 | 119 | 0.0 | 4.8 | 0.00 | 0.00 | 0.00 | 85 | 1017.6 |
| 20260502044634 | 2 | 118 | 0.0 | 6.4 | 0.00 | 0.00 | 0.00 | 85 | 1017.5 |
| 20260502043033 | 2 | 127 | 4.8 | 11.3 | 0.00 | 0.00 | 0.00 | 84 | 1017.4 |
| 20260502041536 | 2 | 122 | 3.2 | 9.7 | 0.00 | 0.00 | 0.00 | 84 | 1017.4 |
| 20260502040030 | 3 | 122 | 4.8 | 12.9 | 0.00 | 0.00 | 0.00 | 83 | 1017.3 |
| 20260502034531 | 3 | 119 | 3.2 | 11.3 | 0.00 | 0.00 | 0.00 | 82 | 1017.3 |
| 20260502033026 | 3 | 86 | 1.6 | 11.3 | 0.00 | 0.00 | 0.00 | 81 | 1017.2 |
| 20260502031525 | 3 | 80 | 3.2 | 9.7 | 0.00 | 0.00 | 0.00 | 78 | 1017.1 |
| 20260502030025 | 3 | 51 | 3.2 | 6.4 | 0.00 | 0.00 | 0.00 | 78 | 1017.2 |
| 20260502024523 | 3 | 51 | 0.0 | 6.4 | 0.00 | 0.00 | 0.00 | 78 | 1017.1 |
| 20260502023023 | 4 | 67 | 1.6 | 6.4 | 0.00 | 0.00 | 0.00 | 76 | 1017.1 |
| 20260502021520 | 4 | 65 | 4.8 | 8.0 | 0.00 | 0.00 | 0.00 | 76 | 1017.0 |
| 20260502020022 | 4 | 60 | 0.0 | 6.4 | 0.00 | 0.00 | 0.00 | 75 | 1016.8 |
| 20260502014518 | 5 | 51 | 8.0 | 14.5 | 0.00 | 0.00 | 0.00 | 73 | 1016.6 |
| 20260502013015 | 5 | 67 | 8.0 | 22.5 | 0.00 | 0.00 | 0.00 | 70 | 1016.5 |
| 20260502011535 | 6 | 308 | 0.0 | 8.0 | 0.00 | 0.00 | 0.00 | 59 | 1016.2 |
| 20260502010013 | 6 | 306 | 1.6 | 8.0 | 0.00 | 0.00 | 0.00 | 57 | 1016.1 |
| 20260502004511 | 6 | 281 | 3.2 | 9.7 | 0.00 | 0.00 | 0.00 | 56 | 1016.0 |
| 20260502003009 | 6 | 297 | 1.6 | 11.3 | 0.00 | 0.00 | 0.00 | 57 | 1015.8 |
| 20260502001510 | 6 | 283 | 0.0 | 8.0 | 0.00 | 0.00 | 0.00 | 57 | 1015.8 |
| 20260502000010 | 6 | 333 | 6.4 | 19.3 | 0.00 | 0.00 | 0.00 | 56 | 1015.6 |
| 20260501234506 | 6 | 13 | 6.4 | 12.9 | 0.00 | 0.00 | 0.00 | 57 | 1015.5 |
| 20260501233007 | 6 | 329 | 8.0 | 16.1 | 0.00 | 0.00 | 0.00 | 57 | 1015.5 |
| 20260501231505 | 6 | 351 | 8.0 | 14.5 | 0.00 | 0.00 | 0.00 | 59 | 1015.5 |
| 20260501230002 | 6 | 333 | 9.7 | 17.7 | 0.00 | 0.00 | 0.00 | 60 | 1015.3 |
| 20260501224502 | 6 | 5 | 8.0 | 24.1 | 0.00 | 0.00 | 0.00 | 60 | 1015.4 |
| 20260501223125 | 6 | 342 | 9.7 | 24.1 | 0.00 | 0.00 | 0.00 | 60 | 1015.4 |
| 20260501223001 | 6 | 327 | 11.3 | 24.1 | 0.00 | 0.00 | 0.00 | 59 | 1015.4 |
| 20260501221617 | 7 | 336 | 4.8 | 16.1 | 0.00 | 0.00 | 0.00 | 59 | 1015.1 |
| 20260501220057 | 7 | 225 | 8.0 | 12.9 | 0.00 | 0.00 | 0.00 | 57 | 1014.8 |
| 20260501214556 | 7 | 221 | 1.6 | 11.3 | 0.00 | 0.00 | 0.00 | 58 | 1014.9 |
| 20260501213056 | 7 | 263 | 0.0 | 4.8 | 0.00 | 0.00 | 0.00 | 56 | 1014.8 |
| 20260501211558 | 7 | 317 | 0.0 | 4.8 | 0.00 | 0.00 | 0.00 | 55 | 1014.8 |
| 20260501210053 | 7 | 234 | 0.0 | 8.0 | 0.00 | 0.00 | 0.00 | 57 | 1014.8 |
| 20260501204553 | 7 | 261 | 0.0 | 6.4 | 0.00 | 0.00 | 0.00 | 57 | 1014.8 |
| 20260501203053 | 7 | 327 | 1.6 | 6.4 | 0.00 | 0.00 | 0.00 | 56 | 1014.9 |
| 20260501201552 | 7 | 306 | 1.6 | 12.9 | 0.00 | 0.00 | 0.00 | 55 | 1014.8 |
| 20260501200051 | 7 | 25 | 0.0 | 14.5 | 0.00 | 0.00 | 0.00 | 55 | 1014.8 |
| 20260501194551 | 7 | 339 | 6.4 | 12.9 | 0.00 | 0.00 | 0.00 | 59 | 1014.7 |
| 20260501193048 | 6 | 339 | 4.8 | 9.7 | 0.00 | 0.00 | 0.00 | 57 | 1014.9 |
| 20260501191547 | 6 | 360 | 12.9 | 17.7 | 0.00 | 0.00 | 0.00 | 59 | 1014.8 |
| 20260501190058 | 6 | 355 | 8.0 | 16.1 | 0.00 | 0.00 | 0.00 | 58 | 1014.8 |
| 20260501184546 | 6 | 5 | 6.4 | 16.1 | 0.00 | 0.00 | 0.00 | 61 | 1014.7 |